Weather History for Meacham, OR

Change the Weather History Date:

Thursday, August 14, 2014

  Actual Average Record
Temperature  
Mean Temperature 58 °F -  
Max Temperature 68 °F 78 °F 95 °F (1997)
Min Temperature 51 °F 38 °F 30 °F (2005)
Degree Days  
Heating Degree Days 6    
Growing Degree Days 8 (Base 50)    
Moisture  
Dew Point 53 °F    
Average Humidity 85    
Maximum Humidity 100    
Minimum Humidity 57    
Precipitation  
Precipitation 0.26 in - - ()
Sea Level Pressure  
Sea Level Pressure 30.02 in    
Wind  
Wind Speed 1 mph (NNW)    
Max Wind Speed 5 mph    
Max Gust Speed -    
Visibility 9 miles    
Events Rain    
Averages and records for this station are not official NWS values.
T = Trace of Precipitation, MM = Missing Value Source: NWS Daily Summary

Daily Weather History Graph

Daily Weather History Graph

Search for Another Location

Airport:

Trip Planner

Search our weather history database for the weather conditions in past years. The results will help you decide how hot, cold, wet, or windy it might be!

Date:

Astronomy

Aug. 14, 2014 Rise Set
Actual Time 5:53 AM PDT 8:02 PM PDT
Civil Twilight 5:20 AM PDT 8:34 PM PDT
Nautical Twilight 4:40 AM PDT 9:14 PM PDT
Astronomical Twilight 3:55 AM PDT 9:59 PM PDT
Moon 10:11 PM PDT (8/14) 10:51 AM PDT (8/14)
Length of Visible Light 15h 14m
Length of Day
14h 09m
Waning Gibbous, 78% of the Moon is Illuminated
Aug 14
Waning Gibbous
Aug 17
Last Quarter
Aug 25
New
Sep 2
First Quarter
Sep 8
Full

Hourly Weather History & Observations

Time (PDT) Temp. Dew Point Humidity Pressure Visibility Wind Dir Wind Speed Gust Speed Precip Events Conditions
12:24 AM 55.9 °F 55.0 °F 97% 30.07 in 10.0 mi Calm Calm - N/A   Overcast
12:56 AM 55.9 °F 52.0 °F 87% 30.01 in 5.0 mi East 4.6 mph - 0.02 in Rain Rain
1:05 AM 55.0 °F 53.1 °F 93% 30.06 in 1.8 mi West 4.6 mph - 0.05 in Rain Heavy Rain
1:14 AM 54.0 °F 52.0 °F 93% 30.06 in 3.0 mi Calm Calm - 0.09 in Rain Light Rain
1:56 AM 53.1 °F 53.1 °F 100% 30.02 in 9.0 mi Calm Calm - 0.09 in Rain Light Rain
2:25 AM 53.1 °F 52.0 °F 96% 30.06 in 8.0 mi Calm Calm - 0.00 in   Mostly Cloudy
2:56 AM 53.1 °F 52.0 °F 96% 30.02 in 9.0 mi Calm Calm - 0.00 in Rain Light Rain
3:56 AM 53.1 °F 52.0 °F 96% 30.00 in 10.0 mi Calm Calm - 0.12 in   Mostly Cloudy
4:29 AM 53.1 °F 52.0 °F 96% 30.02 in 10.0 mi Variable 3.5 mph - 0.00 in   Mostly Cloudy
4:56 AM 53.1 °F 52.0 °F 96% 30.01 in 10.0 mi Calm Calm - 0.00 in   Clear
5:48 AM 51.1 °F 50.0 °F 96% 30.04 in 9.0 mi Calm Calm - N/A   Scattered Clouds
5:56 AM 51.1 °F 50.0 °F 96% 30.01 in 8.0 mi Calm Calm - N/A   Scattered Clouds
6:56 AM 52.0 °F 51.1 °F 97% 30.02 in 8.0 mi Calm Calm - N/A   Mostly Cloudy
7:56 AM 55.9 °F 54.0 °F 93% 30.03 in 10.0 mi Calm Calm - N/A   Clear
8:56 AM 59.0 °F 54.0 °F 83% 30.02 in 10.0 mi Calm Calm - N/A   Partly Cloudy
9:56 AM 60.1 °F 53.1 °F 78% 30.03 in 10.0 mi Calm Calm - N/A   Clear
10:56 AM 64.0 °F 51.1 °F 63% 30.01 in 10.0 mi Variable 3.5 mph - N/A   Scattered Clouds
11:19 AM 63.0 °F 51.1 °F 65% 30.06 in 10.0 mi NW 3.5 mph - N/A   Mostly Cloudy
11:35 AM 66.9 °F 53.1 °F 61% 30.06 in 10.0 mi Calm Calm - N/A   Mostly Cloudy
11:56 AM 66.0 °F 51.1 °F 59% 30.01 in 10.0 mi Calm Calm - N/A   Mostly Cloudy
12:56 PM 66.9 °F 51.1 °F 57% 30.01 in 10.0 mi Calm Calm - N/A   Mostly Cloudy
1:56 PM 64.9 °F 52.0 °F 63% 30.01 in 10.0 mi Calm Calm - N/A   Overcast
2:56 PM 64.0 °F 55.9 °F 75% 30.00 in 10.0 mi Calm Calm - 0.00 in   Overcast
3:56 PM 64.0 °F 55.0 °F 73% 29.99 in 10.0 mi NNE 3.5 mph - 0.01 in Rain Light Rain
4:56 PM 63.0 °F 57.0 °F 81% 30.00 in 10.0 mi Calm Calm - 0.00 in Rain Light Rain
5:56 PM 64.0 °F 53.1 °F 67% 30.00 in 10.0 mi Calm Calm - 0.00 in   Overcast
6:56 PM 63.0 °F 57.0 °F 81% 29.99 in 10.0 mi Calm Calm - N/A   Overcast
7:56 PM 60.1 °F 57.0 °F 90% 30.01 in 10.0 mi Calm Calm - N/A   Overcast
8:56 PM 59.0 °F 57.0 °F 93% 30.02 in 10.0 mi Calm Calm - 0.00 in Rain Light Rain
9:56 PM 57.9 °F 55.9 °F 93% 30.01 in 10.0 mi Calm Calm - 0.02 in Rain Light Rain
10:56 PM 55.0 °F 54.0 °F 96% 30.01 in 10.0 mi Calm Calm - 0.00 in   Partly Cloudy
11:22 PM 54.0 °F 53.1 °F 97% 30.05 in 9.0 mi Calm Calm - N/A   Scattered Clouds
11:37 PM 54.0 °F 53.1 °F 97% 30.05 in 5.0 mi Calm Calm - N/A   Mostly Cloudy
11:56 PM 53.1 °F 52.0 °F 96% 30.01 in 6.0 mi Calm Calm - N/A   Overcast